Regional Weather Roundup
Issued by NWS

Home | Current Version | Previous Version | Text Only | Print | Product List | Glossary On
Versions: 1 2 3 4 5 6 7 8 9 10 11 12 13 14 15 16 17 18 19 20 21 22 23 24 25 26 27 28 29 30 31 32 33 34 35 36 37 38 39 40 41 42 43 44 45 46 47 48 49 50
000
ASUS43 KDMX 210201
RWRIA

WEATHER ROUNDUP FOR IOWA
NATIONAL WEATHER SERVICE DES MOINES IA
800 PM CST FRI JAN 20 2017

NOTE: "FAIR" INDICATES FEW OR NO CLOUDS BELOW 12,000 FEET WITH NO
SIGNIFICANT WEATHER AND/OR OBSTRUCTIONS TO VISIBILITY.

* - THESE STATIONS ARE NOT NWS STATIONS...THUS NOT UNDER NWS
QUALITY CONTROL.  THEY ALSO DO NOT REPORT WEATHER SUCH
AS PRECIPITATION OR FOG.

IAZ001>003-012>014-020>022-031>034-043>046-210300-
   NORTHWEST IOWA

CITY           SKY/WX    TMP DP  RH WIND       PRES   REMARKS
CARROLL *      FOG       37  36  93 E5        29.49S VSB<1/4 WCI  34
CHEROKEE *     CLOUDY    37  37 100 SE3       29.47F FOG
DENISON *      CLOUDY    39  39 100 E8        29.44F WCI  34
LE MARS *      CLOUDY    39  39 100 SE7       29.45F WCI  34
ORANGE CITY *  FOG       37  37 100 E5        29.45F VSB 1   WCI  34
SHELDON *      CLOUDY    36  36 100 SE5       29.45F FOG     WCI  32
SIOUX CITY     LGT RAIN  40  39  97 SE7       29.44F
SPENCER        CLOUDY    36  36 100 SE5       29.48F FOG     WCI  32
STORM LAKE *   CLOUDY    36  36 100 SE9       29.47F WCI  29
$$

IAZ055>058-069>071-079>083-090>094-210300-
   SOUTHWEST IOWA

CITY           SKY/WX    TMP DP  RH WIND       PRES   REMARKS
ATLANTIC *     MIX PCPN  41  41 100 E9        29.46F
AUDUBON *      DRIZZLE   39  37  93 SE6       29.48S WCI  35
CLARINDA *     FOG       43  43 100 CALM      29.48S VSB 1/4
COUNCIL BLFS * FOG       41  41 100 SE8       29.45S VSB 1
CRESTON *      MIX PCPN  39  39 100 E12       29.48F VSB<1/4 WCI  32
HARLAN  *      CLOUDY    39  39 100 E7        29.49F WCI  34
LAMONI         FOG       44  44 100 E7        29.47F VSB 1/2
RED OAK *      CLOUDY    41  41 100 E8        29.46F FOG
SHENANDOAH *   FOG       43  41  93 SE5       29.46F VSB 3/4
$$

IAZ047>049-059>061-072>074-084-210300-
   CENTRAL IOWA

CITY           SKY/WX    TMP DP  RH WIND       PRES   REMARKS
AMES           FOG       38  38 100 E6        29.52F VSB 1/4 WCI  33
ANKENY *       FOG       39  39 100 SE6       29.53S VSB 1/4 WCI  35
BOONE *        FOG       37  37 100 SE7       29.51S VSB<1/4 WCI  32
CHARITON *     FOG       41  41 100 E8        29.50F VSB 1/4
DES MOINES     LGT RAIN  41  40  96 E8        29.51S VSB 1/2
GRINNELL*      SNOW      38  37  99 E7        29.54S VSB 1/4 WCI  32
KNOXVILLE *    FOG       41  41 100 E8        29.51S VSB 1/4
MARSHALLTOWN   FOG       37  37 100 E9        29.52F VSB 1/4 WCI  30
NEWTON *       FOG       39  39 100 E9        29.52F VSB 1/4 WCI  33
PELLA *        DRZL/FOG  40  40  99 E6        29.54S VSB 1/2
PERRY *        FOG       38  38  98 E7        29.51S VSB 1/2 WCI  33
$$

IAZ004>006-015-016-023>025-035-036-210300-
   NORTH CENTRAL IOWA

CITY           SKY/WX    TMP DP  RH WIND       PRES   REMARKS
ALGONA *       FOG       36  36 100 E9        29.50F VSB 1/2 WCI  29
CLARION *      FOG       36  36 100 E10       29.52S VSB 1/4 WCI  28
ESTHERVILLE    FOG       33  33 100 SE6       29.50F VSB 1/2 WCI  28
FORT DODGE *   CLOUDY    36  34  93 SE5       29.51S VSB 1/2 WCI  32
MASON CITY     FOG       34  34 100 E8        29.55F VSB 1/4 WCI  27
FOREST CITY *  FOG       34  34 100 E7        29.53S VSB 1/4 WCI  28
WEBSTER CITY * FOG       36 N/A N/A E9        29.49F VSB 1/4 WCI  29
IOWA FALLS *   FOG       36  36  98 E5        29.54F VSB 1/4 WCI  32
$$

IAZ007>011-017>019-026>030-037>042-050>054-066-210300-
   NORTHEAST IOWA

CITY           SKY/WX    TMP DP  RH WIND       PRES   REMARKS
CEDAR RAPIDS   FOG       38  38 100 E6        29.56S VSB 1/4 WCI  33
CHARLES CITY * MIX PCPN  34  34 100 E8        29.56F VSB<1/4 WCI  27
CLINTON *      LGT RAIN  39  39 100 E8        29.59F VSB 1/4 WCI  33
DECORAH *      FOG       36  36 100 CALM      29.57F VSB<1/4
DUBUQUE        FOG       37  37 100 E6        29.58F VSB 1/4 WCI  32
MONTICELLO *   FOG       37  37 100 E6        29.58F VSB<1/4 WCI  33
OELWEIN *      FOG       36  36 100 SE12      29.56F VSB<1/4 WCI  27
WATERLOO       FOG       37  37 100 SE9       29.55F VSB 1/4 WCI  30
$$

IAZ064-065-067-068-078-210300-
   EAST CENTRAL IOWA

CITY           SKY/WX    TMP DP  RH WIND       PRES   REMARKS
DAVENPORT      FOG       42  41  96 E7        29.58F VSB 1/4
IOWA CITY      FOG       42  41  96 E5        29.58S VSB 3/4
MUSCATINE *    FOG       45  43  93 CALM      29.58S VSB 1/4
QUAD CITIES    FOG       43  41  93 E6        29.57F VSB 1/2
$$

IAZ062-063-075>077-085>089-095>099-210300-
   SOUTHEAST IOWA

CITY           SKY/WX    TMP DP  RH WIND       PRES   REMARKS
BURLINGTON     FOG       45  45 100 SE5       29.56R VSB 1
FAIRFIELD *    FOG       43  43 100 E8        29.54F VSB 1/4
FORT MADISON * CLOUDY    46  46 100 E6        29.55F FOG
KEOKUK *       CLOUDY    46 N/A N/A SE7       29.54F FOG
OSKALOOSA *    FOG       40  40  99 E8        29.54F VSB 1/2 WCI  35
OTTUMWA        FOG       42  40  92 E7        29.53S VSB 1/4
WASHINGTON *   FOG       41  41 100 SE7       29.57S VSB<1/4
$$

ABBREVIATIONS USED IN REMARKS
   TC - TEMPERATURES IN CELSIUS
  WCI - WIND CHILL INDEX
   HX - HEAT INDEX
  VSB - VISIBILITY
$$





USA.gov is the U.S. government's official web portal to all federal, state and local government web resources and services.